[[{"header":{"parameterUnit":"m.s-1","parameterCategory":1,"la1":30.2991,"la2":30.254,"lo1":-89.0895,"lo2":-89.0444,"dy":0.0017,"dx":0.0017,"nx":28,"ny":28,"refTime":"2024-03-27T09:00:00:Z","depth":0,"parameterNumber":2,"parameterNumberName":"U-component_of_WINDS"},"data":[0,0,0,0,0,0,0,0,0,0,0,0,0,0,0,0,0,0,0,0,0,0,0,0,0,0,0,0,0,0,0,0,0,0,0,0,0,0,0,0,0,0,0,0,0,0,0,0,0,0,0,0,0,0,0,0,0,0,-1.6683,-1.6683,0,-1.6628,-1.6627,-1.6627,-1.6587,-1.6587,-1.6587,-1.6586,-1.653,-1.6529,-1.6528,0,0,0,0,0,0,0,0,0,0,0,0,0,-1.6754,-1.6753,-1.6684,-1.6683,-1.6682,-1.6628,-1.6627,-1.6627,-1.6587,-1.6587,-1.6586,-1.6586,-1.6531,-1.6529,-1.6528,0,0,0,0,0,0,0,0,0,0,0,0,0,-1.6714,-1.6753,-1.6684,-1.6656,-1.6653,-1.6628,-1.6627,-1.6626,-1.6587,-1.6587,-1.6586,-1.6586,-1.6531,-1.6529,-1.6528,-1.6526,0,0,-1.6522,-1.6521,0,0,0,0,0,0,0,0,-1.6716,-1.6711,-1.6661,-1.6658,-1.6654,-1.6614,-1.6632,-1.6593,-1.6587,-1.6612,-1.6586,-1.6586,-1.6559,-1.6555,-1.6545,-1.6524,-1.6521,-1.6522,-1.6521,-1.652,-1.652,0,0,0,0,0,0,0,-1.6719,-1.6713,-1.6662,-1.666,-1.6656,-1.6646,-1.664,-1.6624,-1.6589,-1.661,-1.6607,-1.6601,-1.6557,-1.6547,-1.6544,-1.6521,-1.6522,-1.6521,-1.6519,-1.6519,-1.6493,-1.6493,0,0,0,0,0,0,-1.6726,-1.6716,-1.6663,-1.666,-1.6685,-1.6645,-1.6638,-1.6627,-1.6589,-1.6583,-1.6601,-1.6599,-1.655,-1.6546,-1.6542,-1.6536,-1.652,-1.6519,-1.6518,-1.6492,-1.6493,-1.6493,0,0,0,0,0,0,-1.6728,-1.6722,-1.6666,-1.6687,-1.6679,-1.6644,-1.6633,-1.6627,-1.6617,-1.6582,-1.6576,-1.6598,-1.655,-1.6544,-1.653,-1.6533,-1.6518,-1.6516,-1.6492,-1.6492,-1.6493,-1.6526,0,0,0,0,0,0,-1.673,-1.6723,-1.6722,-1.6687,-1.6678,-1.6655,-1.6633,-1.6626,-1.6614,-1.6611,-1.6577,-1.6572,-1.6549,-1.6533,-1.6528,-1.6531,-1.6515,-1.6491,-1.6492,-1.6493,-1.6524,-1.6527,-1.653,0,0,0,0,0,-1.6732,-1.6734,-1.6722,-1.6716,-1.6677,-1.6656,-1.665,-1.6624,-1.6614,-1.6613,-1.6591,-1.6573,-1.6534,-1.6532,-1.6526,-1.6528,-1.6491,-1.6492,-1.6493,-1.6523,-1.6527,-1.653,0,0,0,0,0,0,-1.6771,-1.6729,-1.6716,-1.6706,-1.6685,-1.6649,-1.6647,-1.6629,-1.661,-1.6608,-1.6576,-1.6569,-1.6558,-1.6542,-1.654,-1.6524,-1.651,-1.651,-1.6535,-1.6538,-1.6541,-1.6545,-1.6513,0,0,0,0,0,-1.6779,-1.6765,-1.6729,-1.6724,-1.6714,-1.6682,-1.6672,-1.6653,-1.663,-1.6621,-1.6597,-1.6575,-1.6558,-1.6547,-1.6529,-1.6521,-1.6513,-1.652,-1.6523,-1.6525,-1.6526,-1.6518,-1.652,-1.6496,-1.6496,-1.6496,0,0,-1.6794,-1.6769,-1.6763,-1.6731,-1.6712,-1.6698,-1.6675,-1.6662,-1.6651,-1.6619,-1.6604,-1.6585,-1.6559,-1.6547,-1.6541,-1.6533,-1.653,-1.6527,-1.6529,-1.6527,-1.6519,-1.6522,-1.6524,-1.6496,-1.6496,-1.6496,0,0,-1.6814,-1.6795,-1.6788,-1.6769,-1.674,-1.6719,-1.6717,-1.6683,-1.667,-1.6654,-1.6629,-1.6615,-1.6586,-1.6567,-1.6554,-1.6565,-1.6547,-1.656,-1.6575,-1.6568,-1.657,-1.6572,-1.6574,-1.6576,-1.656,-1.656,-1.656,0,-1.6837,-1.6815,-1.6786,-1.6774,-1.676,-1.6729,-1.6721,-1.6704,-1.6672,-1.6662,-1.6654,-1.6615,-1.6595,-1.6578,-1.658,-1.6571,-1.6567,-1.6564,-1.6572,-1.6574,-1.6575,-1.6577,-1.6578,-1.6562,-1.6562,-1.6562,-1.6561,0,-1.6844,-1.6829,-1.6826,-1.6794,-1.678,-1.677,-1.6739,-1.6728,-1.671,-1.6689,-1.6672,-1.6646,-1.6622,-1.6616,-1.6599,-1.6596,-1.6592,-1.6578,-1.6564,-1.6579,-1.658,-1.6581,-1.6564,-1.6564,-1.6563,-1.6563,0,0,-1.6888,-1.6839,-1.6838,-1.6822,-1.6787,-1.6775,-1.6763,-1.6738,-1.6729,-1.6706,-1.6695,-1.667,-1.6656,-1.6641,-1.6621,-1.6615,-1.6623,-1.6602,-1.6601,-1.6606,-1.6616,-1.6626,-1.6628,-1.6611,-1.6611,-1.6611,-1.6618,0,-1.6902,-1.6879,-1.6851,-1.6837,-1.6821,-1.6791,-1.678,-1.6757,-1.6737,-1.6721,-1.6698,-1.668,-1.6665,-1.6655,-1.6648,-1.6624,-1.6625,-1.6623,-1.6599,-1.6599,-1.6606,-1.6628,-1.6639,-1.6647,-1.6619,-1.6619,-1.6619,0,-1.6916,-1.6895,-1.6878,-1.6843,-1.6835,-1.6826,-1.68,-1.6785,-1.6758,-1.6743,-1.6725,-1.6703,-1.6688,-1.6675,-1.6652,-1.6652,-1.664,-1.6627,-1.6626,-1.6623,-1.6609,-1.6625,-1.6649,-1.665,-1.6619,-1.6619,-1.6619,0,-1.6949,-1.6916,-1.6901,-1.6888,-1.6847,-1.6841,-1.6823,-1.6795,-1.6781,-1.6758,-1.6749,-1.6725,-1.6712,-1.6693,-1.6665,-1.6659,-1.6645,-1.663,-1.6632,-1.6632,-1.663,-1.6631,-1.6652,-1.6624,-1.6624,-1.6624,-1.6624,0,-1.6968,-1.6959,-1.6915,-1.6906,-1.6894,-1.6862,-1.6851,-1.6831,-1.6806,-1.6792,-1.6764,-1.6751,-1.6715,-1.6698,-1.6676,-1.666,-1.6654,-1.6641,-1.6636,-1.6643,-1.6645,-1.6635,-1.6634,-1.6624,-1.6624,-1.6624,-1.6624,0,-1.7002,-1.6973,-1.6954,-1.6916,-1.6906,-1.6899,-1.6865,-1.6855,-1.6832,-1.6815,-1.6809,-1.6773,-1.6751,-1.6721,-1.669,-1.6675,-1.6661,-1.6653,-1.6671,-1.6667,-1.667,-1.6669,-1.6685,-1.6685,-1.6658,-1.6658,-1.6658,0,-1.7016,-1.7008,-1.6968,-1.6956,-1.6939,-1.6921,-1.6906,-1.6874,-1.686,-1.6826,-1.682,-1.6795,-1.6774,-1.674,-1.6711,-1.6687,-1.6677,-1.6684,-1.6673,-1.668,-1.6675,-1.6676,-1.6674,-1.6686,-1.6687,-1.6687,-1.6688,0,-1.7043,-1.7028,-1.7008,-1.6982,-1.6965,-1.6943,-1.692,-1.6912,-1.6874,-1.6859,-1.6836,-1.6819,-1.6787,-1.6762,-1.6734,-1.6715,-1.6695,-1.6691,-1.669,-1.6698,-1.6708,-1.6701,-1.6677,-1.6691,-1.6691,-1.669,-1.669,-1.669,-1.7066,-1.7057,-1.7027,-1.7005,-1.6984,-1.6962,-1.695,-1.6925,-1.6905,-1.6875,-1.6857,-1.6834,-1.6805,-1.6764,-1.6746,-1.6727,-1.6719,-1.6718,-1.6717,-1.6717,-1.6719,-1.6711,-1.6722,-1.6722,-1.6722,-1.6721,-1.6721,0,-1.7091,-1.7069,-1.7049,-1.7017,-1.6999,-1.6981,-1.6954,-1.694,-1.692,-1.6894,-1.6873,-1.6845,-1.6821,-1.679,-1.6763,-1.6754,-1.6743,-1.6748,-1.6748,-1.6743,-1.6729,-1.6732,-1.6756,-1.6756,-1.6756,-1.6756,-1.6756,-1.6756,-1.7101,-1.7084,-1.7065,-1.7037,-1.7015,-1.6992,-1.6978,-1.6957,-1.6936,-1.6906,-1.6885,-1.6865,-1.6836,-1.6807,-1.6783,-1.6775,-1.6766,-1.6772,-1.6761,-1.6748,-1.6745,-1.6742,-1.6744,-1.6771,-1.6771,-1.6777,-1.6777,-1.6777]},{"header":{"parameterUnit":"m.s-1","parameterCategory":1,"la1":30.2991,"la2":30.254,"lo1":-89.0895,"lo2":-89.0444,"dy":0.0017,"dx":0.0017,"nx":28,"ny":28,"refTime":"2024-03-27T09:00:00:Z","depth":0,"parameterNumber":3,"parameterNumberName":"V-component_of_WINDS"},"data":[0,0,0,0,0,0,0,0,0,0,0,0,0,0,0,0,0,0,0,0,0,0,0,0,0,0,0,0,0,0,0,0,0,0,0,0,0,0,0,0,0,0,0,0,0,0,0,0,0,0,0,0,0,0,0,0,0,0,-4.3463,-4.3462,0,-4.3394,-4.3393,-4.3393,-4.3411,-4.3412,-4.3413,-4.3415,-4.3337,-4.3334,-4.3331,0,0,0,0,0,0,0,0,0,0,0,0,0,-4.3605,-4.3603,-4.3463,-4.3462,-4.3462,-4.3394,-4.3393,-4.3392,-4.341,-4.3412,-4.3414,-4.3415,-4.3338,-4.3335,-4.333,0,0,0,0,0,0,0,0,0,0,0,0,0,-4.3541,-4.3602,-4.3463,-4.3463,-4.3462,-4.3394,-4.3393,-4.3392,-4.341,-4.3412,-4.3414,-4.3416,-4.334,-4.3335,-4.333,-4.3257,0,0,-4.3315,-4.3312,0,0,0,0,0,0,0,0,-4.3544,-4.3535,-4.3463,-4.3462,-4.3462,-4.3413,-4.3415,-4.3347,-4.3409,-4.3429,-4.3415,-4.3417,-4.336,-4.3354,-4.3336,-4.3254,-4.325,-4.3314,-4.3311,-4.3309,-4.3308,0,0,0,0,0,0,0,-4.3549,-4.3538,-4.3436,-4.3462,-4.3461,-4.3464,-4.3457,-4.3402,-4.3384,-4.3428,-4.3429,-4.3421,-4.336,-4.3341,-4.3334,-4.3249,-4.3314,-4.331,-4.3307,-4.3305,-4.3103,-4.3101,0,0,0,0,0,0,-4.3555,-4.3542,-4.3438,-4.3434,-4.3509,-4.346,-4.3452,-4.3426,-4.3385,-4.338,-4.3419,-4.3422,-4.3349,-4.334,-4.3332,-4.3243,-4.3309,-4.3304,-4.3301,-4.3106,-4.3103,-4.31,0,0,0,0,0,0,-4.3558,-4.3545,-4.3441,-4.3488,-4.3475,-4.3455,-4.3426,-4.3424,-4.3405,-4.3378,-4.3374,-4.3403,-4.335,-4.3339,-4.3276,-4.3241,-4.3302,-4.3297,-4.3108,-4.3105,-4.3101,-4.3066,0,0,0,0,0,0,-4.3562,-4.3546,-4.3519,-4.3487,-4.3473,-4.3387,-4.3424,-4.3421,-4.3397,-4.34,-4.3362,-4.3358,-4.3351,-4.3283,-4.3271,-4.3235,-4.3293,-4.3111,-4.3107,-4.3103,-4.307,-4.3062,-4.3054,0,0,0,0,0,-4.3567,-4.3511,-4.3518,-4.3505,-4.3439,-4.3385,-4.3376,-4.3371,-4.3394,-4.3366,-4.3349,-4.3359,-4.3248,-4.3277,-4.3263,-4.3225,-4.3113,-4.3108,-4.3103,-4.3073,-4.3063,-4.3055,0,0,0,0,0,0,-4.3536,-4.3506,-4.3514,-4.3446,-4.3419,-4.3389,-4.3353,-4.3361,-4.3324,-4.3328,-4.3321,-4.3313,-4.3248,-4.3231,-4.3264,-4.3152,-4.3183,-4.3175,-4.3166,-4.3156,-4.3148,-4.3152,-4.3289,0,0,0,0,0,-4.3522,-4.3483,-4.3459,-4.3401,-4.3387,-4.3373,-4.3349,-4.3348,-4.3318,-4.3305,-4.3284,-4.3252,-4.321,-4.3183,-4.3142,-4.3069,-4.306,-4.3036,-4.3028,-4.3022,-4.3013,-4.2972,-4.2961,-4.3083,-4.3083,-4.3083,0,0,-4.3491,-4.347,-4.3445,-4.3394,-4.3373,-4.3331,-4.3362,-4.3316,-4.3284,-4.3297,-4.3237,-4.3221,-4.3185,-4.3117,-4.3085,-4.31,-4.2979,-4.3015,-4.301,-4.3005,-4.2966,-4.2954,-4.2944,-4.3079,-4.308,-4.3081,0,0,-4.3413,-4.3395,-4.3345,-4.3323,-4.3291,-4.3282,-4.327,-4.3239,-4.3229,-4.317,-4.3179,-4.314,-4.3068,-4.3043,-4.302,-4.2935,-4.2942,-4.2922,-4.288,-4.284,-4.2831,-4.2822,-4.279,-4.2779,-4.2915,-4.2915,-4.2915,0,-4.3378,-4.3317,-4.3317,-4.3271,-4.3248,-4.3261,-4.3209,-4.3188,-4.3143,-4.3126,-4.3144,-4.3054,-4.3032,-4.2957,-4.2937,-4.2918,-4.2903,-4.2925,-4.2833,-4.2824,-4.2816,-4.2785,-4.2773,-4.2913,-4.2913,-4.2913,-4.2913,0,-4.3275,-4.3233,-4.3196,-4.3155,-4.3128,-4.3079,-4.307,-4.3043,-4.3045,-4.3034,-4.2972,-4.2946,-4.29,-4.2883,-4.2884,-4.2808,-4.2818,-4.2835,-4.2865,-4.2802,-4.2773,-4.2761,-4.2909,-4.291,-4.2911,-4.2912,0,0,-4.3172,-4.3135,-4.3121,-4.3103,-4.307,-4.3036,-4.2988,-4.2946,-4.2922,-4.2891,-4.2849,-4.2789,-4.2805,-4.2779,-4.2777,-4.2742,-4.2675,-4.2763,-4.2762,-4.2746,-4.2589,-4.2575,-4.2562,-4.2681,-4.2679,-4.2678,-4.2591,0,-4.309,-4.3008,-4.3007,-4.293,-4.289,-4.2903,-4.2861,-4.2835,-4.2824,-4.2787,-4.2775,-4.2732,-4.2756,-4.2741,-4.2707,-4.2691,-4.2643,-4.2697,-4.264,-4.2637,-4.2645,-4.2547,-4.2532,-4.2452,-4.258,-4.2578,-4.2577,0,-4.2982,-4.2951,-4.2871,-4.2844,-4.2828,-4.279,-4.2752,-4.2717,-4.2688,-4.2682,-4.2656,-4.2659,-4.2608,-4.2643,-4.2572,-4.2609,-4.2586,-4.2574,-4.2571,-4.2563,-4.2601,-4.2534,-4.2427,-4.2413,-4.256,-4.2561,-4.2562,0,-4.2913,-4.2851,-4.2795,-4.278,-4.2748,-4.2721,-4.2706,-4.2679,-4.2654,-4.2621,-4.2604,-4.2565,-4.2542,-4.2511,-4.2503,-4.253,-4.2431,-4.2466,-4.2423,-4.2423,-4.2399,-4.24,-4.2284,-4.2388,-4.2389,-4.2389,-4.2389,0,-4.282,-4.2769,-4.2764,-4.2729,-4.2673,-4.2673,-4.2617,-4.2604,-4.258,-4.2542,-4.2551,-4.2514,-4.2508,-4.2469,-4.2463,-4.2404,-4.2394,-4.2387,-4.2385,-4.2384,-4.2385,-4.2367,-4.2371,-4.2386,-4.2386,-4.2387,-4.2388,0,-4.2732,-4.2726,-4.2666,-4.2642,-4.2635,-4.2594,-4.2573,-4.2539,-4.253,-4.2481,-4.247,-4.2455,-4.241,-4.2401,-4.2347,-4.2343,-4.2272,-4.2277,-4.2282,-4.2282,-4.2239,-4.2242,-4.2104,-4.2085,-4.2205,-4.2204,-4.2203,0,-4.2671,-4.2633,-4.2606,-4.2583,-4.2567,-4.2528,-4.2504,-4.2503,-4.2477,-4.2442,-4.2411,-4.2369,-4.2334,-4.2261,-4.2244,-4.2203,-4.2206,-4.2161,-4.2199,-4.22,-4.2202,-4.2204,-4.2199,-4.2152,-4.2151,-4.215,-4.2149,0,-4.2563,-4.2563,-4.2529,-4.2494,-4.2466,-4.2437,-4.241,-4.239,-4.2385,-4.2355,-4.2311,-4.2284,-4.2231,-4.2187,-4.2147,-4.2129,-4.2137,-4.2138,-4.2125,-4.2122,-4.2126,-4.2121,-4.2259,-4.214,-4.2141,-4.2141,-4.2142,-4.2142,-4.2485,-4.2452,-4.2429,-4.239,-4.2371,-4.2346,-4.2313,-4.2302,-4.2266,-4.2223,-4.2225,-4.2176,-4.2148,-4.2095,-4.2076,-4.2036,-4.205,-4.2032,-4.2027,-4.2022,-4.2017,-4.2135,-4.2029,-4.2029,-4.2029,-4.2029,-4.203,0,-4.2376,-4.2363,-4.2328,-4.2291,-4.2261,-4.2276,-4.2247,-4.2219,-4.2177,-4.2152,-4.2119,-4.2068,-4.2026,-4.2007,-4.1966,-4.1937,-4.194,-4.1926,-4.1927,-4.1922,-4.2008,-4.2022,-4.1925,-4.1925,-4.1925,-4.1925,-4.1925,-4.1925,-4.2315,-4.226,-4.2257,-4.2192,-4.2179,-4.2133,-4.2115,-4.2092,-4.2072,-4.2015,-4.1982,-4.1971,-4.1948,-4.1905,-4.1867,-4.1862,-4.1845,-4.1829,-4.1826,-4.1906,-4.1916,-4.1926,-4.1939,-4.1826,-4.1826,-4.1743,-4.1742,-4.1742]}]]